"Pseudo-MPEC" for P22oVOy

Created 2026 Aug 17 23:35:15 UT using Find_Orb

Click here for an explanation of pseudo-MPECs

 
 Astrometry: 
     P22oVOy*0C2026 08 07.37555322 16 17.994+14 41 56.54   ~87BK 21.86wXNEOCPF52
     P22oVOy 0C2026 08 07.38574922 16 17.696+14 42 03.91   ~87BK 22.09wXNEOCPF52
     P22oVOy 0C2026 08 07.39589222 16 17.424+14 42 11.41   ~87BK 21.50wXNEOCPF52
     P22oVOy 0C2026 08 07.50475222 16 14.191+14 43 28.28   ~87HK 21.85GVNEOCPF51
     P22oVOy 0C2026 08 07.50557422 16 14.168+14 43 28.84   ~87HK 21.88GVNEOCPF51
     P22oVOy KC2026 08 08.30650922 15 53.75 +14 52 40.8    ~887o 21.8 GVNEOCPH21
     P22oVOy KC2026 08 08.30988022 15 53.63 +14 52 42.6    ~887o 21.8 GVNEOCPH21
     P22oVOy 0C2026 08 12.36962022 13 56.759+15 35 17.51   ~8E1Z 21.15GVNEOCPF52
     P22oVOy 0C2026 08 12.38167222 13 56.335+15 35 24.85   ~8E1Z 20.84GVNEOCPF52
     P22oVOy 0C2026 08 12.39370022 13 55.905+15 35 31.84   ~8E1Z 21.64GVNEOCPF52
     P22oVOy 0C2026 08 12.40578222 13 55.477+15 35 38.81   ~8E1Z 21.54GVNEOCPF52

Station data:
(F51) Pan-STARRS 1, Haleakala  (N20.707234 W156.255910)  US/Hawaii.
   Observers J. Herman, T. Lowe, P. Minguez, A. Schultz, I. Smith. Measurers
   K. Chambers, T. de Boer, J. Fairlamb, H. Gao, M. Huber, C.-C. Lin, E.
   Magnier, Y. Ramanjooloo, R. Wainscoat, R. Weryk. 1.8-m Ritchey-Chrétien +
   CCD.
(F52) Pan-STARRS 2, Haleakala  (N20.707382 W156.255910)  US/Hawaii.
   Observers J. Herman, T. Lowe, P. Minguez, A. Schultz, I. Smith. Measurers
   K. Chambers, T. de Boer, J. Fairlamb, H. Gao, M. Huber, C.-C. Lin, E.
   Magnier, Y. Ramanjooloo, R. Wainscoat, R. Weryk. 1.8-m Ritchey-Chrétien +
   CCD.
(H21) Astronomical Research Observatory, Westfield  (N39.483054 W87.968270)
   US/Illinois.  Observer R. Holmes. Measurers S. Foglia, L. Buzzi, T.
   Linder, R. Holmes. 0.40-m f/5.32 astrograph + CCD.

Orbital elements:  P22oVOy
   Perihelion 2026 Aug 28.135125 +/- 2.95 TT =  3:14:34.8 (JD 2461280.635125)
Epoch 2026 Aug 12.0 TT = JDT 2461264.5   Earth MOID: 0.7052      AutoNEOCP
M 356.086166798 +/- 0.7             (J2000 ecliptic)
n   0.242566025 +/- 0.00579         Peri.   74.169134 +/- 2.1
a   2.546338093 +/- 0.0405          Node   262.682810 +/- 0.6
e   0.34371946 +/- 0.00695          Incl.   11.520562 +/- 0.12
P   4.06326                H 20.33  G  0.15   U  9.3
q 1.671112124 +/- 0.00902    Q 3.421564062 +/- 0.0721
From 11 observations 2026 Aug. 7-12; mean residual 0".13
Residuals in arcseconds: 
260807 F52  .05+  .06-    260807 F51  .09-  .08-    260812 F52  .01-  .09+    
260807 F52  .05-  .00     260808 H21  .14+  .27+    260812 F52  .00   .08+    
260807 F52  .24+  .23+    260808 H21  .13-  .23-    260812 F52  .09+  .05+    
260807 F51  .11-  .07-    260812 F52  .07-  .22-    

Ephemerides (geocentric):
Date (UTC) HH   RA             Dec           delta  r     elong  mag " sig PA
---- --------  ------------   ------------  ------ ------ -----  --- --------
2026 08 18 00  22 10 43.509   +16 21 23.26  .71851 1.6730 149.8 21.7 6.81  53
2026 08 18 01  22 10 41.986   +16 21 40.21  .71844 1.6730 149.9 21.7 6.89  53
2026 08 18 02  22 10 40.463   +16 21 57.11  .71836 1.6730 149.9 21.7 6.97  53
2026 08 18 03  22 10 38.939   +16 22 13.96  .71829 1.6729 149.9 21.7 7.04  53
2026 08 18 04  22 10 37.413   +16 22 30.75  .71822 1.6729 149.9 21.7 7.12  53
2026 08 18 05  22 10 35.886   +16 22 47.50  .71814 1.6729 149.9 21.7 7.20  53
2026 08 18 06  22 10 34.359   +16 23 04.19  .71807 1.6729 149.9 21.7 7.28  53
2026 08 18 07  22 10 32.830   +16 23 20.82  .71800 1.6729 150.0 21.7 7.36  53
2026 08 18 08  22 10 31.300   +16 23 37.41  .71792 1.6729 150.0 21.7 7.44  52
2026 08 18 09  22 10 29.769   +16 23 53.94  .71785 1.6728 150.0 21.7 7.52  52
2026 08 18 10  22 10 28.237   +16 24 10.42  .71778 1.6728 150.0 21.7 7.60  52
2026 08 18 11  22 10 26.705   +16 24 26.85  .71771 1.6728 150.0 21.7 7.68  52
2026 08 18 12  22 10 25.171   +16 24 43.23  .71763 1.6728 150.0 21.7 7.76  52
2026 08 18 13  22 10 23.636   +16 24 59.55  .71756 1.6728 150.1 21.7 7.84  52
2026 08 18 14  22 10 22.100   +16 25 15.82  .71749 1.6728 150.1 21.6 7.92  52
2026 08 18 15  22 10 20.563   +16 25 32.04  .71742 1.6728 150.1 21.6 8.01  52
2026 08 18 16  22 10 19.025   +16 25 48.21  .71735 1.6727 150.1 21.6 8.09  52
2026 08 18 17  22 10 17.486   +16 26 04.32  .71728 1.6727 150.1 21.6 8.17  52
2026 08 18 18  22 10 15.946   +16 26 20.38  .71721 1.6727 150.1 21.6 8.26  52
2026 08 18 19  22 10 14.405   +16 26 36.39  .71714 1.6727 150.2 21.6 8.34  52
2026 08 18 20  22 10 12.864   +16 26 52.34  .71707 1.6727 150.2 21.6 8.42  52
2026 08 18 21  22 10 11.321   +16 27 08.25  .71700 1.6727 150.2 21.6 8.51  52
2026 08 18 22  22 10 09.777   +16 27 24.10  .71693 1.6727 150.2 21.6 8.59  52
2026 08 18 23  22 10 08.233   +16 27 39.90  .71686 1.6726 150.2 21.6 8.68  52
2026 08 19 00  22 10 06.687   +16 27 55.64  .71679 1.6726 150.2 21.6 8.76  52
2026 08 19 01  22 10 05.141   +16 28 11.33  .71673 1.6726 150.2 21.6 8.85  52
2026 08 19 02  22 10 03.593   +16 28 26.97  .71666 1.6726 150.3 21.6 8.94  52
2026 08 19 03  22 10 02.045   +16 28 42.56  .71659 1.6726 150.3 21.6 9.02  52
2026 08 19 04  22 10 00.496   +16 28 58.10  .71652 1.6726 150.3 21.6 9.11  52
2026 08 19 05  22 09 58.945   +16 29 13.58  .71646 1.6726 150.3 21.6 9.20  52
2026 08 19 06  22 09 57.394   +16 29 29.01  .71639 1.6725 150.3 21.6 9.29  52
2026 08 19 07  22 09 55.842   +16 29 44.38  .71632 1.6725 150.3 21.6 9.38  52
2026 08 19 08  22 09 54.290   +16 29 59.71  .71626 1.6725 150.4 21.6 9.47  52
2026 08 19 09  22 09 52.736   +16 30 14.98  .71619 1.6725 150.4 21.6 9.56  51
2026 08 19 10  22 09 51.181   +16 30 30.20  .71612 1.6725 150.4 21.6 9.64  51
2026 08 19 11  22 09 49.626   +16 30 45.36  .71606 1.6725 150.4 21.6 9.73  51
2026 08 19 12  22 09 48.070   +16 31 00.48  .71599 1.6725 150.4 21.6 9.83  51
2026 08 19 13  22 09 46.513   +16 31 15.54  .71593 1.6725 150.4 21.6 9.92  51
2026 08 19 14  22 09 44.955   +16 31 30.55  .71586 1.6724 150.4 21.6 10.0  51
2026 08 19 15  22 09 43.396   +16 31 45.50  .71580 1.6724 150.5 21.6 10.1  51
2026 08 19 16  22 09 41.837   +16 32 00.40  .71574 1.6724 150.5 21.6 10.2  51
2026 08 19 17  22 09 40.276   +16 32 15.25  .71567 1.6724 150.5 21.6 10.3  51
2026 08 19 18  22 09 38.715   +16 32 30.05  .71561 1.6724 150.5 21.6 10.4  51
2026 08 19 19  22 09 37.153   +16 32 44.79  .71555 1.6724 150.5 21.6 10.5  51
2026 08 19 20  22 09 35.590   +16 32 59.48  .71548 1.6724 150.5 21.6 10.6  51
2026 08 19 21  22 09 34.027   +16 33 14.12  .71542 1.6724 150.6 21.6 10.7  51
2026 08 19 22  22 09 32.463   +16 33 28.71  .71536 1.6723 150.6 21.6 10.8  51
2026 08 19 23  22 09 30.897   +16 33 43.24  .71529 1.6723 150.6 21.6 10.8  51